This demonstration page uses our WeatherBlox Daily Observations layout. Learn more.

Left ArrowRight Arrow

39.08367, -84.50855

Hourly Observations for May 11, 2017

Temp ( °F °C ) Dew Point ( °F °C ) Humidity (%) Winds ( mph kmh ) Pressure ( in mb ) Visibility ( mi km ) Precip ( " mm )
12:53 am 00:53 Mostly Clear 73 22.8 64 17.8 74 74 SSW 10 17 29.84 1011 10 16 N/A
1:53 am 01:53 Mostly Cloudy with Light Rain 68 20 65 18.3 90 90 SW 8 13 29.85 1011 10 16 0.03 0.76
2:53 am 02:53 Partly Cloudy 67 19.4 63 17.2 87 87 WSW 12 19 29.81 1010 10 16 N/A
3:53 am 03:53 Mostly Cloudy 66 18.9 64 17.8 93 93 SW 14 22 29.83 1010 10 16 N/A
4:53 am 04:53 Mostly Cloudy 65 18.3 64 17.8 97 97 SW 12 19 29.83 1010 10 16 0.02 0.51
5:53 am 05:53 Mostly Clear 65 18.3 63 17.2 93 93 WSW 9 15 29.80 1009 10 16 N/A
6:33 am 06:33 Mostly Cloudy 64 17.8 64 17.8 100 100 SW 6 9 29.83 1010 10 16 N/A
6:53 am 06:53 Cloudy 65 18.3 64 17.8 97 97 S 3 6 29.82 1010 10 16 N/A
7:14 am 07:14 Cloudy 65 18.3 64 17.8 97 97 S 6 9 29.83 1010 10 16 N/A
7:33 am 07:33 Cloudy 66 18.9 64 17.8 93 93 SW 8 13 29.85 1011 10 16 N/A
7:53 am 07:53 Cloudy 66 18.9 65 18.3 96 96 WSW 9 15 29.85 1011 10 16 N/A
8:53 am 08:53 Mostly Cloudy 68 20 65 18.3 90 90 W 12 19 29.87 1011 10 16 N/A
9:53 am 09:53 Cloudy 69 20.6 65 18.3 87 87 WSW 7 11 29.85 1011 10 16 N/A
10:53 am 10:53 Mostly Cloudy 72 22.2 66 18.9 82 82 W 10 17 29.83 1010 10 16 N/A
11:53 am 11:53 Cloudy 72 22.2 64 17.8 76 76 WNW 12 19 29.84 1011 10 16 N/A
12:53 pm 12:53 Cloudy with Light Rain 70 21.1 64 17.8 82 82 N 7 11 29.84 1011 10 16 N/A
1:53 pm 13:53 Cloudy 69 20.6 63 17.2 81 81 N 7 11 29.86 1011 10 16 N/A
2:53 pm 14:53 Cloudy with Light Rain 68 20 63 17.2 84 84 N 7 11 29.86 1011 10 16 N/A
3:53 pm 15:53 Cloudy with Light Rain 66 18.9 60 15.6 81 81 NNE 14 22 29.85 1011 10 16 N/A
4:53 pm 16:53 Cloudy 65 18.3 59 15 81 81 N 6 9 29.85 1011 10 16 N/A
5:53 pm 17:53 Cloudy 64 17.8 59 15 84 84 N 7 11 29.85 1011 10 16 N/A
6:19 pm 18:19 Cloudy 64 17.8 58 14.4 81 81 NNW 8 13 29.85 1011 10 16 N/A
6:53 pm 18:53 Cloudy 64 17.8 58 14.4 81 81 N 8 13 29.85 1011 10 16 N/A
7:53 pm 19:53 Cloudy 63 17.2 58 14.4 84 84 N 5 7 29.86 1011 10 16 N/A
8:00 pm 20:00 Cloudy 63 17.2 58 14.4 84 84 NNE 3 6 29.88 1012 10 16 N/A
8:53 pm 20:53 Cloudy 63 17.2 58 14.4 84 84 NNE 6 9 29.87 1012 10 16 N/A
9:53 pm 21:53 Mostly Cloudy 62 16.7 58 14.4 86 86 NE 3 6 29.88 1012 10 16 N/A
10:15 pm 22:15 Mostly Cloudy 61 16.1 58 14.4 90 90 NE 3 6 29.91 1013 10 16 N/A
10:53 pm 22:53 Partly Cloudy 59 15 58 14.4 96 96 N N/A 29.89 1012 10 16 N/A
11:53 pm 23:53 Cloudy 60 15.6 56 13.3 86 86 N 8 13 29.89 1012 10 16 N/A

Powered by AerisWeather